JBU2453 KILM-KJAX

Flight info

Callsign JBU2453
Flight time 0h 51m
Altitude 34000
Route ESENT LUNNI2
Aircraft A320/M-SDE3FGHIRWY/LB1

Departure

Time 2026-04-23 03:30
Airport Wilmington International Airport (KILM)

Arrival

Time 2026-04-23 04:21
Airport Jacksonville International Airport (KJAX)
Time Latitude Longitude Altitude Speed Heading
2026-04-23 02:59 34.26631 -77.90851 41 ft 0 kts 315°
2026-04-23 03:13 34.26604 -77.90877 41 ft 0 kts 317°
2026-04-23 03:22 34.26595 -77.90867 41 ft 2 kts 317°
2026-04-23 03:23 34.26583 -77.90853 40 ft 2 kts 324°
2026-04-23 03:23 34.26567 -77.90847 37 ft 2 kts
2026-04-23 03:23 34.26551 -77.90849 38 ft 2 kts 48°
2026-04-23 03:23 34.26548 -77.90851 41 ft 0 kts 63°
2026-04-23 03:25 34.26567 -77.90824 37 ft 7 kts 45°
2026-04-23 03:25 34.26605 -77.90774 40 ft 9 kts 49°
2026-04-23 03:25 34.26657 -77.90703 41 ft 13 kts 47°
2026-04-23 03:26 34.26722 -77.90617 41 ft 15 kts 49°
2026-04-23 03:26 34.26792 -77.90517 40 ft 16 kts 50°
2026-04-23 03:26 34.26869 -77.90403 37 ft 19 kts 51°
2026-04-23 03:26 34.26954 -77.90275 39 ft 20 kts 50°
2026-04-23 03:27 34.27040 -77.90147 40 ft 20 kts 52°
2026-04-23 03:27 34.27133 -77.90010 38 ft 22 kts 50°
2026-04-23 03:27 34.27236 -77.89865 40 ft 23 kts 47°
2026-04-23 03:27 34.27347 -77.89714 40 ft 25 kts 45°
2026-04-23 03:28 34.27485 -77.89619 40 ft 23 kts 43°
2026-04-23 03:28 34.27599 -77.89469 39 ft 25 kts 49°
2026-04-23 03:28 34.27716 -77.89308 40 ft 27 kts 49°
2026-04-23 03:28 34.27746 -77.89186 40 ft 15 kts 128°
2026-04-23 03:29 34.27658 -77.89102 39 ft 17 kts 161°
2026-04-23 03:29 34.27553 -77.89191 38 ft 32 kts 227°
2026-04-23 03:29 34.27242 -77.89596 41 ft 96 kts 226°
2026-04-23 03:29 34.26686 -77.90359 62 ft 140 kts 228°
2026-04-23 03:30 34.26030 -77.91256 470 ft 145 kts 227°
2026-04-23 03:30 34.25354 -77.92193 881 ft 152 kts 229°
2026-04-23 03:30 34.24639 -77.93198 1381 ft 158 kts 230°
2026-04-23 03:30 34.23929 -77.94161 2142 ft 149 kts 230°
2026-04-23 03:31 34.23188 -77.95123 2476 ft 166 kts 230°
2026-04-23 03:31 34.22339 -77.96200 2734 ft 186 kts 231°
2026-04-23 03:31 34.21452 -77.97459 2998 ft 209 kts 234°
2026-04-23 03:31 34.20495 -77.98888 3362 ft 233 kts 234°
2026-04-23 03:32 34.19440 -78.00475 3965 ft 247 kts 234°
2026-04-23 03:32 34.18341 -78.02122 4774 ft 255 kts 234°
2026-04-23 03:32 34.17209 -78.03816 5572 ft 262 kts 233°
2026-04-23 03:32 34.16056 -78.05538 6419 ft 266 kts 234°
2026-04-23 03:33 34.14892 -78.07275 7205 ft 271 kts 234°
2026-04-23 03:33 34.13694 -78.09061 7959 ft 277 kts 234°
2026-04-23 03:33 34.12469 -78.10883 8744 ft 282 kts 234°
2026-04-23 03:33 34.11219 -78.12735 9532 ft 286 kts 234°
2026-04-23 03:34 34.09951 -78.14613 10218 ft 295 kts 234°
2026-04-23 03:34 34.08605 -78.16611 10435 ft 318 kts 233°
2026-04-23 03:34 34.07158 -78.18760 10606 ft 340 kts 233°
2026-04-23 03:34 34.05635 -78.21017 11105 ft 350 kts 233°
2026-04-23 03:35 34.04090 -78.23305 11808 ft 354 kts 233°
2026-04-23 03:35 34.02529 -78.25614 12549 ft 356 kts 233°
2026-04-23 03:35 34.00959 -78.27931 13292 ft 359 kts 232°
2026-04-23 03:35 33.99371 -78.30271 14037 ft 361 kts 233°
2026-04-23 03:36 33.97775 -78.32624 14694 ft 364 kts 233°
2026-04-23 03:36 33.96182 -78.34968 15305 ft 368 kts 232°
2026-04-23 03:36 33.94551 -78.37366 15931 ft 371 kts 232°
2026-04-23 03:36 33.92911 -78.39778 16538 ft 374 kts 233°
2026-04-23 03:37 33.91255 -78.42216 17154 ft 377 kts 233°
2026-04-23 03:37 33.89594 -78.44664 17779 ft 379 kts 233°
2026-04-23 03:37 33.87912 -78.47140 18396 ft 383 kts 233°
2026-04-23 03:37 33.86218 -78.49629 18948 ft 386 kts 233°
2026-04-23 03:38 33.84508 -78.52142 19494 ft 390 kts 233°
2026-04-23 03:38 33.82780 -78.54682 20063 ft 394 kts 233°
2026-04-23 03:38 33.81033 -78.57244 20640 ft 398 kts 233°
2026-04-23 03:38 33.79268 -78.59830 21202 ft 401 kts 233°
2026-04-23 03:39 33.77508 -78.62407 21737 ft 405 kts 232°
2026-04-23 03:39 33.75710 -78.65033 22256 ft 409 kts 233°
2026-04-23 03:39 33.73893 -78.67684 22812 ft 412 kts 233°
2026-04-23 03:39 33.72064 -78.70360 23286 ft 417 kts 232°
2026-04-23 03:40 33.70215 -78.73066 23769 ft 420 kts 232°
2026-04-23 03:40 33.68349 -78.75795 24152 ft 424 kts 233°
2026-04-23 03:40 33.66472 -78.78535 24579 ft 427 kts 233°
2026-04-23 03:40 33.64575 -78.81292 24984 ft 430 kts 233°
2026-04-23 03:41 33.62661 -78.84071 25397 ft 432 kts 233°
2026-04-23 03:41 33.60736 -78.86867 25790 ft 436 kts 233°
2026-04-23 03:41 33.58798 -78.89681 26197 ft 438 kts 233°
2026-04-23 03:41 33.56877 -78.92474 26594 ft 441 kts 233°
2026-04-23 03:42 33.54918 -78.95323 26988 ft 444 kts 233°
2026-04-23 03:42 33.52937 -78.98198 27362 ft 447 kts 233°
2026-04-23 03:42 33.50950 -79.01079 27742 ft 450 kts 233°
2026-04-23 03:42 33.48948 -79.03975 28116 ft 453 kts 233°
2026-04-23 03:43 33.46931 -79.06894 28502 ft 454 kts 233°
2026-04-23 03:43 33.44915 -79.09806 29013 ft 454 kts 233°
2026-04-23 03:43 33.42900 -79.12710 29528 ft 453 kts 233°
2026-04-23 03:43 33.40882 -79.15619 30044 ft 453 kts 233°
2026-04-23 03:44 33.38874 -79.18517 30504 ft 452 kts 233°
2026-04-23 03:44 33.36870 -79.21408 30928 ft 452 kts 233°
2026-04-23 03:44 33.34863 -79.24302 31383 ft 450 kts 233°
2026-04-23 03:44 33.32867 -79.27175 31845 ft 449 kts 233°
2026-04-23 03:45 33.30888 -79.30013 32296 ft 448 kts 233°
2026-04-23 03:45 33.28889 -79.32868 32748 ft 447 kts 233°
2026-04-23 03:45 33.26900 -79.35709 33208 ft 446 kts 233°
2026-04-23 03:45 33.24916 -79.38551 33678 ft 444 kts 233°
2026-04-23 03:46 33.22942 -79.41386 34081 ft 444 kts 233°
2026-04-23 03:46 33.20968 -79.44224 34183 ft 446 kts 233°
2026-04-23 03:46 33.16951 -79.49993 34208 ft 455 kts 233°
2026-04-23 03:47 33.12876 -79.55808 34211 ft 457 kts 233°
2026-04-23 03:47 33.08797 -79.61618 34212 ft 457 kts 233°
2026-04-23 03:48 33.04694 -79.67425 34209 ft 459 kts 230°
2026-04-23 03:48 33.02281 -79.69929 34206 ft 463 kts 216°
2026-04-23 03:48 32.99561 -79.72008 34203 ft 464 kts 215°
2026-04-23 03:49 32.94086 -79.76099 34196 ft 465 kts 214°
2026-04-23 03:49 32.88590 -79.80180 34188 ft 466 kts 214°
2026-04-23 03:50 32.83132 -79.84240 34190 ft 466 kts 214°
2026-04-23 03:50 32.77599 -79.88356 34203 ft 466 kts 214°
2026-04-23 03:51 32.72130 -79.92421 34199 ft 466 kts 214°
2026-04-23 03:51 32.66623 -79.96515 34204 ft 466 kts 214°
2026-04-23 03:52 32.61105 -80.00607 34203 ft 467 kts 214°
2026-04-23 03:52 32.55599 -80.04680 34204 ft 467 kts 214°
2026-04-23 03:53 32.50122 -80.08727 34206 ft 467 kts 214°
2026-04-23 03:53 32.44605 -80.12796 34203 ft 467 kts 214°
2026-04-23 03:54 32.39090 -80.16864 34194 ft 467 kts 214°
2026-04-23 03:54 32.33568 -80.20927 34199 ft 467 kts 214°
2026-04-23 03:55 32.28036 -80.24989 34198 ft 467 kts 214°
2026-04-23 03:55 32.22542 -80.29019 34199 ft 467 kts 214°
2026-04-23 03:56 32.17013 -80.33071 34202 ft 467 kts 214°
2026-04-23 03:56 32.11492 -80.37124 34201 ft 467 kts 214°
2026-04-23 03:57 32.05965 -80.41161 34200 ft 467 kts 214°
2026-04-23 03:57 32.00430 -80.45203 34200 ft 468 kts 214°
2026-04-23 03:58 31.94891 -80.49236 34195 ft 467 kts 214°
2026-04-23 03:58 31.89387 -80.53222 34203 ft 467 kts 214°
2026-04-23 03:59 31.83854 -80.57243 34188 ft 467 kts 214°
2026-04-23 03:59 31.78317 -80.61271 34190 ft 468 kts 214°
2026-04-23 04:00 31.72780 -80.65282 34189 ft 468 kts 214°
2026-04-23 04:00 31.68170 -80.68605 34205 ft 468 kts 214°
2026-04-23 04:01 31.61719 -80.73266 34205 ft 467 kts 214°
2026-04-23 04:01 31.56184 -80.77273 34210 ft 467 kts 214°
2026-04-23 04:02 31.51574 -80.80587 34215 ft 467 kts 214°
2026-04-23 04:02 31.46025 -80.84572 34211 ft 467 kts 214°
2026-04-23 04:03 31.40476 -80.88560 34217 ft 467 kts 214°
2026-04-23 04:03 31.34962 -80.92513 34211 ft 467 kts 213°
2026-04-23 04:04 31.29417 -80.96486 34209 ft 467 kts 214°
2026-04-23 04:04 31.23874 -81.00456 34217 ft 467 kts 213°
2026-04-23 04:05 31.18332 -81.04415 34212 ft 467 kts 213°
2026-04-23 04:05 31.12784 -81.08372 34220 ft 466 kts 213°
2026-04-23 04:06 31.07272 -81.12296 34217 ft 466 kts 213°
2026-04-23 04:06 31.01724 -81.16237 34216 ft 466 kts 213°
2026-04-23 04:07 30.96183 -81.20176 34211 ft 466 kts 213°
2026-04-23 04:07 30.93417 -81.22143 33991 ft 464 kts 213°
2026-04-23 04:07 30.90659 -81.24100 33276 ft 464 kts 213°
2026-04-23 04:08 30.87900 -81.26057 32537 ft 464 kts 214°
2026-04-23 04:08 30.85141 -81.28011 31796 ft 464 kts 214°
2026-04-23 04:08 30.82507 -81.30074 31049 ft 460 kts 223°
2026-04-23 04:08 30.80330 -81.32731 29818 ft 450 kts 237°
2026-04-23 04:09 30.78885 -81.35916 28571 ft 441 kts 253°
2026-04-23 04:09 30.78045 -81.39300 27436 ft 432 kts 257°
2026-04-23 04:09 30.77258 -81.42648 26365 ft 426 kts 256°
2026-04-23 04:09 30.76468 -81.45952 25341 ft 420 kts 256°
2026-04-23 04:10 30.75683 -81.49196 24366 ft 414 kts 256°
2026-04-23 04:10 30.74907 -81.52398 23356 ft 409 kts 256°
2026-04-23 04:10 30.74143 -81.55556 22299 ft 403 kts 256°
2026-04-23 04:10 30.73392 -81.58669 21304 ft 397 kts 256°
2026-04-23 04:11 30.72649 -81.61753 20384 ft 392 kts 255°
2026-04-23 04:11 30.71916 -81.64788 19492 ft 387 kts 255°
2026-04-23 04:11 30.71191 -81.67779 18632 ft 382 kts 255°
2026-04-23 04:11 30.70473 -81.70734 17658 ft 377 kts 255°
2026-04-23 04:12 30.69776 -81.73611 16688 ft 371 kts 255°
2026-04-23 04:12 30.69082 -81.76484 15706 ft 367 kts 255°
2026-04-23 04:12 30.68396 -81.79321 14858 ft 360 kts 255°
2026-04-23 04:12 30.67742 -81.82021 14714 ft 334 kts 255°
2026-04-23 04:13 30.67130 -81.84533 14542 ft 312 kts 255°
2026-04-23 04:13 30.66548 -81.86921 14092 ft 303 kts 255°
2026-04-23 04:13 30.65949 -81.89214 13500 ft 299 kts 248°
2026-04-23 04:13 30.64881 -81.91262 12855 ft 297 kts 229°
2026-04-23 04:14 30.63356 -81.92869 12178 ft 296 kts 220°
2026-04-23 04:14 30.61714 -81.94331 11733 ft 298 kts 217°
2026-04-23 04:14 30.60021 -81.95704 11399 ft 297 kts 214°
2026-04-23 04:14 30.58284 -81.96992 11072 ft 296 kts 212°
2026-04-23 04:15 30.56503 -81.98195 10728 ft 295 kts 210°
2026-04-23 04:15 30.54690 -81.99304 10463 ft 295 kts 207°
2026-04-23 04:15 30.50943 -82.01234 9921 ft 294 kts 202°
2026-04-23 04:16 30.49017 -82.02052 9637 ft 293 kts 199°
2026-04-23 04:16 30.47103 -82.02756 9358 ft 291 kts 197°
2026-04-23 04:16 30.45147 -82.03342 9066 ft 289 kts 188°
2026-04-23 04:16 30.43189 -82.03089 8779 ft 284 kts 155°
2026-04-23 04:17 30.41705 -82.01665 8502 ft 277 kts 121°
2026-04-23 04:17 30.41129 -81.99556 7958 ft 281 kts 88°
2026-04-23 04:17 30.41643 -81.97357 7263 ft 290 kts 60°
2026-04-23 04:17 30.42603 -81.95305 6572 ft 290 kts 69°
2026-04-23 04:18 30.42923 -81.93019 5864 ft 289 kts 93°
2026-04-23 04:18 30.42793 -81.90757 5387 ft 279 kts 85°
2026-04-23 04:18 30.43206 -81.88599 4918 ft 271 kts 70°
2026-04-23 04:18 30.44096 -81.86725 4435 ft 264 kts 50°
2026-04-23 04:19 30.45156 -81.85052 4108 ft 251 kts 67°
2026-04-23 04:19 30.45664 -81.83161 3702 ft 244 kts 75°
2026-04-23 04:19 30.46160 -81.81297 3142 ft 239 kts 73°
2026-04-23 04:19 30.46689 -81.79507 2343 ft 230 kts 73°
2026-04-23 04:20 30.47231 -81.77792 1582 ft 224 kts 72°
2026-04-23 04:20 30.47777 -81.76085 1118 ft 221 kts 73°
2026-04-23 04:20 30.48258 -81.74436 810 ft 209 kts 74°
2026-04-23 04:20 30.48706 -81.72866 545 ft 199 kts 71°
2026-04-23 04:21 30.49194 -81.71368 301 ft 196 kts 69°
2026-04-23 04:21 30.49653 -81.69908 82 ft 187 kts 70°
2026-04-23 04:21 30.50015 -81.68703 37 ft 117 kts 71°
2026-04-23 04:21 30.50160 -81.68198 40 ft 39 kts 79°
2026-04-23 04:22 30.50125 -81.68025 39 ft 17 kts 140°
2026-04-23 04:22 30.50095 -81.68003 39 ft 0 kts 158°
2026-04-23 04:22 30.50066 -81.67991 38 ft 14 kts 161°
2026-04-23 04:22 30.49990 -81.67994 38 ft 8 kts 250°
2026-04-23 04:23 30.49960 -81.68091 39 ft 24 kts 250°
2026-04-23 04:23 30.49894 -81.68300 34 ft 27 kts 252°
2026-04-23 04:23 30.49818 -81.68456 36 ft 19 kts 196°
2026-04-23 04:23 30.49681 -81.68489 36 ft 21 kts 191°
2026-04-23 04:24 30.49530 -81.68511 37 ft 23 kts 175°
2026-04-23 04:24 30.49417 -81.68496 39 ft 11 kts 187°
2026-04-23 04:24 30.49390 -81.68521 39 ft 0 kts 228°